Location: Estes P
(40.3770°N, 105.5210°W)
Time: 13:18:28
(UTC-07:00)

ISS - Visible Passes

Search period start: 18 February 2018 00:00
Search period end: 28 February 2018 00:00
Orbit: 403 x 407 km, 51.6° (Epoch: 19 February)

Date Brightness Start Highest point End Pass type
(mag) Time Alt. Az. Time Alt. Az. Time Alt. Az.
24 Feb -1.3 06:14:12 10° S 06:16:51 23° SE 06:19:31 10° ENE visible
25 Feb -0.7 05:23:23 10° SSE 05:24:47 12° SE 05:26:12 10° ESE visible
26 Feb -3.3 06:05:23 10° SW 06:08:36 60° SE 06:11:49 10° ENE visible
27 Feb -2.0 05:13:56 13° SSW 05:16:24 29° SE 05:19:17 10° ENE visible
